LSMPLSGG

Guest
Details From LSMP - Payerne
To LSGG - Geneva
Flight Number -
Tags Generated
Created
Modified
Stats Distance 49 nm / 91 km
Max Altitude 0 ft / 0 m
Waypoints 2
Social Downloads 1
Likes 0
Share VATSIM

Download

Looking for another format? Having issues loading an existing format? Contact us
Advertisement - Login to hide

Notes

Generated

Route

LSMP LSGG

ID Type Via Altitude Latitude Longitude Leg Dist Tot Dist Heading (true) Name
O LSMP APT - 0 ft / 0 m 46.83467˚ 6.90106˚ - 0 nm - -
O LSGG APT - 0 ft / 0 m 46.23482˚ 6.09953˚ 48 nm 48 nm 223° / 222° -

Altitude Profile

Advertisement - Login to hide

LSMP

Details ICAO LSMP
Name Payerne
Region Switzerland
Timezone Europe/Zurich (UTC+1.0)
Stats Elevation 1,465 ft / 447 m (AMSL)
Location 46.843204° 6.915057°
Runways 1
Magnetic Variation 1.936° E

METAR

LSMP 170150Z AUTO 30005KT 270V330 9999NDV BKN040 01/M04 Q1021 RMK

Decode

TAF

Not found

Departure Runways

ID Width Length Bearing (true) Bearing (mag) Surface Threshold Offset Overrun Length
05 131 ft / 40 m 9,365 ft / 2,854 m 48.29° 46.35° Asphalt 1,365 ft / 416 m 610 ft / 186 m
23 131 ft / 40 m 9,365 ft / 2,854 m 228.31° 226.37° Asphalt 1,358 ft / 414 m 640 ft / 195 m

LSGG

Details ICAO LSGG (GVA)
Name Geneva
Region Switzerland
Timezone Europe/Zurich (UTC+1.0)
Stats Elevation 1,410 ft / 430 m (AMSL)
Location 46.237755° 6.106173°
Runways 2
Magnetic Variation 1.738° E

METAR

LSGG 170220Z AUTO VRB03KT 9999 FEW044 01/M05 Q1022 NOSIG

Decode

TAF

TAF LSGG 170225Z 1703/1809 24006KT 9999 BKN040 TX03/1714Z TNM01/1705Z TNM02/1805Z TEMPO 1800/1809 4000 -SHSN

Decode

Destination Runways

ID Width Length Bearing (true) Bearing (mag) Surface Threshold Offset Overrun Length
05 180 ft / 55 m 12,796 ft / 3,900 m 45.43° 43.69° Concrete 1,079 ft / 329 m 66 ft / 20 m
05L 98 ft / 30 m 2,701 ft / 823 m 45.44° 43.70° Grass 610 ft / 186 m 0 ft / 0 m
23 180 ft / 55 m 12,796 ft / 3,900 m 225.45° 223.71° Concrete 0 ft / 0 m 66 ft / 20 m
23R 98 ft / 30 m 2,701 ft / 823 m 225.45° 223.71° Grass 997 ft / 304 m 0 ft / 0 m

Approach Navaids

Runway Type Ident Frequency Range Bearing (true) Bearing (mag) Slope Elevation
05 Localiser INE 110.90 MHz 18 nm / 33 km 45.45° 43.72° - 1,407 ft / 429 m (AMSL)
05 Glidescope INE 110.90 MHz 18 nm / 33 km 45.45° 43.72° 3.00° 1,460 ft / 445 m (AMSL)
05 DME INE 110.90 MHz 27 nm / 50 km - - - 1,460 ft / 445 m (AMSL)
23 Localiser ISW 109.90 MHz 20 nm / 37 km 225.43° 223.69° - 1,363 ft / 415 m (AMSL)
23 Glidescope ISW 109.90 MHz 20 nm / 37 km 225.43° 223.69° 3.00° 1,384 ft / 422 m (AMSL)
23 DME ISW 109.90 MHz 30 nm / 56 km - - - 1,384 ft / 422 m (AMSL)

Popular Alternatives